Pratt, KS

7:19 PM CST on November 17, 2017 (GMT -0600)
Pratt Industrial

Weather History for KPTT - October, 2013

Change the Weather History Date:

Sunday, October 27, 2013

  Actual Average (KP28) Record (KP28)
Temperature  
Mean Temperature 49 °F -  
Max Temperature 68 °F 64 °F 92 °F (1950)
Min Temperature 30 °F 42 °F 19 °F (2012)
Degree Days  
Heating Degree Days 16    
Moisture  
Dew Point 28 °F    
Average Humidity 50    
Maximum Humidity 87    
Minimum Humidity 21    
Precipitation  
Precipitation 0.00 in - - ()
Sea Level Pressure  
Sea Level Pressure 30.04 in    
Wind  
Wind Speed 8 mph (SSW)    
Max Wind Speed 18 mph    
Max Gust Speed 23 mph    
Visibility 10 miles    
Events      
Averages and records for this station are not official NWS values.
T = Trace of Precipitation, MM = Missing Value Source: NWS Daily Summary

Daily Weather History Graph

Daily Weather History Graph

Search for Another Location

Airport or City:

Trip Planner

Search our weather history database for the weather conditions in past years. The results will help you decide how hot, cold, wet, or windy it might be!

Date:

Astronomy

Oct. 27, 2013 Rise Set
Actual Time 7:55 AM CDT 6:41 PM CDT
Civil Twilight 7:28 AM CDT 7:08 PM CDT
Nautical Twilight 6:57 AM CDT 7:39 PM CDT
Astronomical Twilight 6:27 AM CDT 8:09 PM CDT
Moon 1:01 AM CDT (10/27) 2:44 PM CDT (10/27)
Length of Visible Light 11h 40m
Length of Day
10h 46m
Last Quarter, 43% of the Moon is Illuminated
Oct 27
Last Quarter
Nov 3
New
Nov 9
First Quarter
Nov 17
Full
Nov 25
Last Quarter

Hourly Weather History & Observations

Time (CDT) Temp. Windchill Dew Point Humidity Pressure Visibility Wind Dir Wind Speed Gust Speed Precip Events Conditions
12:15 AM 33.8 °F - 26.6 °F 75% 30.19 in 10.0 mi Calm Calm - N/A   Clear
12:35 AM 35.6 °F - 28.4 °F 75% 30.19 in 4.0 mi Calm Calm - N/A   Haze
12:55 AM 35.6 °F - 30.2 °F 81% 30.18 in 10.0 mi Calm Calm - N/A   Clear
1:15 AM 35.6 °F - 30.2 °F 81% 30.18 in 10.0 mi Calm Calm - N/A   Clear
1:35 AM 37.4 °F - 30.2 °F 75% 30.18 in 10.0 mi Calm Calm - N/A   Clear
1:55 AM 33.8 °F - 30.2 °F 87% 30.18 in 10.0 mi Calm Calm - N/A   Clear
2:15 AM 32.0 °F 26.4 °F 28.4 °F 87% 30.18 in 10.0 mi SSW 5.8 mph - N/A   Clear
2:35 AM 30.2 °F 25.4 °F 26.6 °F 86% 30.17 in 10.0 mi SW 4.6 mph - N/A   Clear
2:55 AM 32.0 °F 26.4 °F 28.4 °F 87% 30.17 in 10.0 mi SW 5.8 mph - N/A   Clear
3:15 AM 32.0 °F 28.7 °F 26.6 °F 80% 30.17 in 10.0 mi WSW 3.5 mph - N/A   Clear
3:35 AM 33.8 °F 29.6 °F 28.4 °F 81% 30.16 in 10.0 mi SW 4.6 mph - N/A   Clear
3:55 AM 32.0 °F 25.6 °F 26.6 °F 80% 30.16 in 10.0 mi SW 6.9 mph - N/A   Clear
4:15 AM 32.0 °F 26.4 °F 26.6 °F 80% 30.16 in 10.0 mi SW 5.8 mph - N/A   Clear
4:35 AM 32.0 °F 26.4 °F 26.6 °F 80% 30.14 in 7.0 mi SW 5.8 mph - N/A   Clear
4:55 AM 32.0 °F 26.4 °F 26.6 °F 80% 30.14 in 10.0 mi SW 5.8 mph - N/A   Clear
5:15 AM 30.2 °F 23.4 °F 26.6 °F 86% 30.13 in 10.0 mi WSW 6.9 mph - N/A   Clear
5:35 AM 30.2 °F 24.3 °F 26.6 °F 86% 30.13 in 10.0 mi SW 5.8 mph - N/A   Clear
5:55 AM 30.2 °F 21.9 °F 26.6 °F 86% 30.12 in 10.0 mi SW 9.2 mph - N/A   Clear
6:15 AM 32.0 °F 24.2 °F 26.6 °F 80% 30.12 in 10.0 mi WSW 9.2 mph - N/A   Clear
6:35 AM 32.0 °F 24.8 °F 26.6 °F 80% 30.12 in 10.0 mi SW 8.1 mph - N/A   Clear
6:55 AM 32.0 °F 24.2 °F 26.6 °F 80% 30.11 in 10.0 mi WSW 9.2 mph - N/A   Clear
7:15 AM 32.0 °F 24.8 °F 26.6 °F 80% 30.10 in 10.0 mi SW 8.1 mph - N/A   Clear
7:35 AM 32.0 °F 24.8 °F 26.6 °F 80% 30.09 in 10.0 mi SW 8.1 mph - N/A   Clear
7:55 AM 32.0 °F 24.2 °F 26.6 °F 80% 30.09 in 10.0 mi SW 9.2 mph - N/A   Clear
8:15 AM 32.0 °F 24.8 °F 28.4 °F 87% 30.09 in 10.0 mi SW 8.1 mph - N/A   Clear
8:35 AM 33.8 °F 27.0 °F 30.2 °F 87% 30.09 in 10.0 mi SW 8.1 mph - N/A   Clear
8:55 AM 37.4 °F 32.1 °F 30.2 °F 75% 30.09 in 10.0 mi SW 6.9 mph - N/A   Clear
9:15 AM 41.0 °F 35.8 °F 32.0 °F 70% 30.09 in 10.0 mi WSW 8.1 mph - N/A   Clear
9:35 AM 46.4 °F 41.1 °F 32.0 °F 57% 30.09 in 10.0 mi WSW 11.5 mph - N/A   Clear
9:55 AM 50.0 °F - 30.2 °F 47% 30.09 in 10.0 mi SW 12.7 mph - N/A   Clear
10:15 AM 51.8 °F - 28.4 °F 41% 30.09 in 10.0 mi SW 11.5 mph - N/A   Clear
10:35 AM 53.6 °F - 28.4 °F 38% 30.09 in 10.0 mi SW 11.5 mph - N/A   Clear
10:55 AM 55.4 °F - 26.6 °F 33% 30.08 in 10.0 mi SW 15.0 mph - N/A   Clear
11:15 AM 59.0 °F - 26.6 °F 29% 30.08 in 10.0 mi SW 16.1 mph - N/A   Clear
11:35 AM 59.0 °F - 28.4 °F 31% 30.07 in 10.0 mi SW 16.1 mph - N/A   Clear
11:55 AM 60.8 °F - 28.4 °F 29% 30.07 in 10.0 mi SSW 15.0 mph - N/A   Clear
12:15 PM 62.6 °F - 28.4 °F 27% 30.06 in 10.0 mi SW 16.1 mph - N/A   Clear
12:35 PM 62.6 °F - 28.4 °F 27% 30.05 in 10.0 mi SW 18.4 mph - N/A   Clear
12:55 PM 64.4 °F - 28.4 °F 26% 30.04 in 10.0 mi SSW 15.0 mph - N/A   Clear
1:15 PM 64.4 °F - 28.4 °F 26% 30.03 in 10.0 mi SW 16.1 mph - N/A   Clear
1:35 PM 66.2 °F - 28.4 °F 24% 30.02 in 10.0 mi SW 13.8 mph 19.6 mph N/A   Clear
1:55 PM 66.2 °F - 28.4 °F 24% 30.01 in 10.0 mi South 16.1 mph 21.9 mph N/A   Clear
2:15 PM 66.2 °F - 28.4 °F 24% 29.99 in 10.0 mi SSW 17.3 mph - N/A   Clear
2:35 PM 68.0 °F - 28.4 °F 23% 29.98 in 10.0 mi SSW 18.4 mph 23.0 mph N/A   Clear
2:55 PM 68.0 °F - 26.6 °F 21% 29.96 in 10.0 mi South 16.1 mph - N/A   Clear
3:15 PM 68.0 °F - 26.6 °F 21% 29.96 in 10.0 mi SSW 16.1 mph 19.6 mph N/A   Clear
3:35 PM 68.0 °F - 26.6 °F 21% 29.95 in 10.0 mi South 13.8 mph 21.9 mph N/A   Clear
3:55 PM 68.0 °F - 26.6 °F 21% 29.95 in 10.0 mi South 18.4 mph - N/A   Clear
4:15 PM 68.0 °F - 26.6 °F 21% 29.95 in 10.0 mi South 16.1 mph 21.9 mph N/A   Clear
4:35 PM 68.0 °F - 26.6 °F 21% 29.94 in 10.0 mi South 18.4 mph - N/A   Clear
4:55 PM 68.0 °F - 28.4 °F 23% 29.94 in 10.0 mi South 15.0 mph 20.7 mph N/A   Clear
5:15 PM 66.2 °F - 28.4 °F 24% 29.93 in 10.0 mi South 16.1 mph 23.0 mph N/A   Clear
5:35 PM 66.2 °F - 28.4 °F 24% 29.93 in 10.0 mi South 13.8 mph - N/A   Clear
5:55 PM 64.4 °F - 26.6 °F 24% 29.92 in 10.0 mi South 12.7 mph - N/A   Clear
6:15 PM 64.4 °F - 24.8 °F 22% 29.92 in 10.0 mi SSE 10.4 mph - N/A   Clear
6:35 PM 62.6 °F - 24.8 °F 24% 29.92 in 10.0 mi SSE 11.5 mph 16.1 mph N/A   Clear
6:55 PM 60.8 °F - 24.8 °F 25% 29.92 in 10.0 mi SSE 10.4 mph - N/A   Clear
7:15 PM 59.0 °F - 26.6 °F 29% 29.92 in 10.0 mi SSE 11.5 mph - N/A   Clear
7:35 PM 57.2 °F - 26.6 °F 31% 29.93 in 10.0 mi SSE 10.4 mph - N/A   Clear
7:55 PM 55.4 °F - 26.6 °F 33% 29.93 in 10.0 mi SSE 11.5 mph - N/A   Clear
8:15 PM 55.4 °F - 26.6 °F 33% 29.93 in 10.0 mi SSE 11.5 mph - N/A   Clear
8:35 PM 55.4 °F - 28.4 °F 36% 29.93 in 10.0 mi SSE 11.5 mph - N/A   Clear
8:55 PM 55.4 °F - 28.4 °F 36% 29.92 in 10.0 mi South 12.7 mph - N/A   Clear
9:15 PM 55.4 °F - 26.6 °F 33% 29.93 in 10.0 mi South 13.8 mph - N/A   Clear
9:35 PM 55.4 °F - 26.6 °F 33% 29.93 in 10.0 mi South 12.7 mph - N/A   Clear
9:55 PM 53.6 °F - 26.6 °F 35% 29.93 in 10.0 mi South 11.5 mph - N/A   Clear
10:15 PM 53.6 °F - 26.6 °F 35% 29.94 in 10.0 mi South 11.5 mph - N/A   Clear
10:35 PM 51.8 °F - 26.6 °F 38% 29.94 in 10.0 mi South 10.4 mph 16.1 mph N/A   Clear
10:55 PM 51.8 °F - 26.6 °F 38% 29.94 in 10.0 mi South 10.4 mph - N/A   Clear
11:15 PM 51.8 °F - 28.4 °F 41% 29.95 in 10.0 mi South 11.5 mph - N/A   Clear
11:35 PM 51.8 °F - 28.4 °F 41% 29.95 in 10.0 mi South 13.8 mph - N/A   Clear
11:55 PM 50.0 °F - 28.4 °F 43% 29.94 in 10.0 mi South 13.8 mph - N/A   Clear